Satellite-Ground Cal/Val Region Overpasses Predictions

Prediction of Satellite NPP Overpassing Cal/Val Region: PacNW

Region Location: (Latitude: 10.00, Longitude: 139.50) to (Latitude: 22.70, Longitude: 165.60).

Table of predicted overpasses for the next 14.0 days since TLE Epoch: 3/1/2019
Interval Starting Time Starting Location Ending Time Ending Location
1 03/01/2019 14:58:29 ( 22.70, 160.25) 03/01/2019 15:02:05 ( 10.02, 157.24)
2 03/02/2019 02:10:12 ( 19.34, 165.59) 03/02/2019 02:11:09 ( 22.68, 164.76)
3 03/02/2019 03:49:03 ( 10.01, 142.40) 03/02/2019 03:52:31 ( 22.22, 139.50)
4 03/02/2019 14:39:27 ( 22.64, 165.00) 03/02/2019 14:43:02 ( 10.02, 162.00)
5 03/02/2019 16:20:56 ( 22.69, 139.64) 03/02/2019 16:21:05 ( 22.16, 139.50)
6 03/03/2019 03:30:01 ( 10.01, 147.16) 03/03/2019 03:33:37 ( 22.69, 144.15)
7 03/03/2019 16:01:54 ( 22.69, 144.40) 03/03/2019 16:05:30 ( 10.01, 141.38)
8 03/04/2019 03:10:58 ( 10.00, 151.92) 03/04/2019 03:14:34 ( 22.68, 148.91)
9 03/04/2019 15:42:51 ( 22.70, 149.16) 03/04/2019 15:46:27 ( 10.02, 146.14)
10 03/05/2019 02:51:56 ( 10.00, 156.68) 03/05/2019 02:55:32 ( 22.68, 153.67)
11 03/05/2019 15:23:49 ( 22.70, 153.92) 03/05/2019 15:27:25 ( 10.02, 150.90)
12 03/06/2019 02:32:55 ( 10.06, 161.43) 03/06/2019 02:36:30 ( 22.68, 158.43)
13 03/06/2019 15:04:47 ( 22.64, 158.66) 03/06/2019 15:08:22 ( 10.02, 155.66)
14 03/07/2019 02:14:36 ( 12.64, 165.60) 03/07/2019 02:17:27 ( 22.68, 163.19)
15 03/07/2019 03:55:21 ( 10.00, 140.83) 03/07/2019 03:56:58 ( 15.70, 139.51)
16 03/07/2019 14:45:45 ( 22.64, 163.42) 03/07/2019 14:49:20 ( 10.02, 160.42)
17 03/08/2019 03:36:19 ( 10.00, 145.59) 03/08/2019 03:39:55 ( 22.68, 142.57)
18 03/08/2019 14:29:46 ( 11.84, 165.60) 03/08/2019 14:30:17 ( 10.02, 165.18)
19 03/08/2019 16:08:11 ( 22.69, 142.82) 03/08/2019 16:11:47 ( 10.01, 139.81)
20 03/09/2019 03:17:16 ( 10.00, 150.35) 03/09/2019 03:20:52 ( 22.68, 147.33)
21 03/09/2019 15:49:09 ( 22.70, 147.58) 03/09/2019 15:52:45 ( 10.01, 144.57)
22 03/10/2019 02:58:14 ( 10.00, 155.11) 03/10/2019 03:01:50 ( 22.68, 152.09)
23 03/10/2019 15:30:06 ( 22.70, 152.34) 03/10/2019 15:33:42 ( 10.02, 149.33)
24 03/11/2019 02:39:11 ( 10.00, 159.87) 03/11/2019 02:42:47 ( 22.68, 156.85)
25 03/11/2019 15:11:04 ( 22.70, 157.10) 03/11/2019 15:14:40 ( 10.02, 154.09)
26 03/12/2019 02:20:09 ( 10.00, 164.63) 03/12/2019 02:23:45 ( 22.68, 161.61)
27 03/12/2019 14:52:02 ( 22.70, 161.86) 03/12/2019 14:55:38 ( 10.02, 158.85)
28 03/13/2019 03:42:36 ( 10.01, 144.01) 03/13/2019 03:46:12 ( 22.69, 140.99)
29 03/13/2019 14:34:10 ( 18.53, 165.60) 03/13/2019 14:36:35 ( 10.02, 163.61)
30 03/13/2019 16:14:29 ( 22.69, 141.24) 03/13/2019 16:16:31 ( 15.53, 139.51)
31 03/14/2019 03:23:34 ( 10.01, 148.77) 03/14/2019 03:27:10 ( 22.69, 145.75)
32 03/14/2019 15:55:27 ( 22.69, 146.00) 03/14/2019 15:59:03 ( 10.01, 142.99)


NCC Satellite Cal/Val Overpasses Prediction Service
